Regional Weather Roundup
Issued by NWS

Home | Current Version | Previous Version | Text Only | Print | Product List | Glossary On
Versions: 1 2 3 4 5 6 7 8 9 10 11 12 13 14 15 16 17 18 19 20 21 22 23 24 25 26 27 28 29 30 31 32 33 34 35 36 37 38 39 40 41 42 43 44 45 46 47 48 49 50
000
ASUS45 KSLC 291010
RWRUT

UTAH REGIONAL WEATHER ROUNDUP
NATIONAL WEATHER SERVICE SALT LAKE CITY UT
400 AM MDT FRI MAY 29 2015

UTZ001>011-023>025-291100-

NORTHERN UTAH

CITY           SKY/WX    TMP DP  RH WIND       PRES   REMARKS
BRIGHAM CITY   CLEAR     49  46  86 NW3       30.17S
HILL AFB       CLEAR     50  41  71 E15       30.17S
LOGAN          CLEAR     44  41  89 CALM      30.19S
OGDEN          CLEAR     50  43  77 S6        30.16S
PROVO AIRPORT  CLEAR     46  37  71 E6        30.18S
SALT LAKE CITY CLEAR     53  43  68 SE7       30.15S
VERNAL         CLEAR     44  37  76 NW5       30.21R
WENDOVER       CLEAR     55  46  71 CALM      30.15F
HEBER CITY     CLEAR     37  34  87 CALM      30.23R
WEST JORDAN    CLEAR     48  45  87 CALM      30.18R

$$

UTZ012>022-026-027-291100-

SOUTHERN/CENTRAL UTAH

CITY           SKY/WX    TMP DP  RH WIND       PRES   REMARKS
BLANDING       CLEAR     51  38  60 NW7       30.22R
BRYCE CANYON   MOCLDY    42  38  85 NW6       30.28S
CEDAR CITY     MOCLDY    53  46  77 CALM      30.16R
DELTA          CLEAR     50  43  78 NE7       30.16S
HANKSVILLE     CLEAR     54  39  58 N5        30.15R
MILFORD        PTCLDY    48  45  89 N6        30.15S
MOAB/CYNLANDS  CLEAR     53  41  63 CALM      30.12R
PRICE          CLEAR     47  34  60 N7        30.18F
ST GEORGE      SUNNY     72  37  28 E3        30.01S

$$

REGIONAL REPORTS     COLORADO/ARIZONA

CITY           SKY/WX    TMP DP  RH WIND       PRES   REMARKS
CRAIG, CO      MOCLDY    39  37  92 CALM      30.24F
GRAND JUNCTION CLEAR     44  44 100 CALM      30.17R
RIFLE          CLEAR     44  38  79 CALM      30.23R
MONTROSE       CLEAR     45  40  82 SE9       30.21F
CORTEZ         CLEAR     42  38  85 NE3       30.16S
PAGE, AZ       MOCLDY    67  42  40 NW6       30.08R
GRAND CANYON   PTCLDY    43  38  82 CALM      30.20F
KINGMAN        MOCLDY    69  22  16 S6        30.00S
FLAGSTAFF      CLOUDY    45  28  51 CALM      30.23S

$$

REGIONAL REPORTS    NEVADA/IDAHO/WYOMING

CITY           SKY/WX    TMP DP  RH WIND       PRES   REMARKS
LAS VEGAS, NV  PTCLDY    80  29  15 S8        29.85R
ELY            PTCLDY    43  39  86 S8        30.21F
ELKO           MOCLDY    50  43  77 VRB3      30.15S
POCATELLO, ID  CLEAR     45  44  97 E5        30.21R
BURLEY         CLEAR     53  46  77 NE8       30.16R
EVANSTON, WY   CLEAR     42  35  76 S3        30.26S
ROCK SPRINGS   PTCLDY    40  36  86 NE3       30.26S
KEMMERER       CLEAR     36  34  93 N6        30.27S WCI  31

$$


USA.gov is the U.S. government's official web portal to all federal, state and local government web resources and services.